TimeCDT,TemperatureF,Dew PointF,Humidity,Sea Level PressureIn,VisibilityMPH,Wind Direction,Wind SpeedMPH,Gust SpeedMPH,PrecipitationIn,Events,Conditions,WindDirDegrees,DateUTC
12:56 AM,62.1,59.0,90,29.96,10.0,North,4.6,-,N/A,,Mostly Cloudy,10,2012-10-26 05:56:00
1:56 AM,63.0,59.0,87,29.95,10.0,North,3.5,-,N/A,,Mostly Cloudy,360,2012-10-26 06:56:00
2:56 AM,64.9,59.0,81,29.94,10.0,Calm,Calm,-,N/A,,Clear,0,2012-10-26 07:56:00
3:56 AM,63.0,59.0,87,29.94,10.0,Calm,Calm,-,N/A,,Clear,0,2012-10-26 08:56:00
4:56 AM,64.0,59.0,84,29.95,10.0,Calm,Calm,-,N/A,,Mostly Cloudy,0,2012-10-26 09:56:00
5:56 AM,61.0,57.9,90,29.95,10.0,Calm,Calm,-,N/A,,Mostly Cloudy,0,2012-10-26 10:56:00
6:56 AM,64.0,61.0,90,29.96,10.0,Calm,Calm,-,N/A,,Overcast,0,2012-10-26 11:56:00
7:56 AM,66.0,61.0,84,29.98,10.0,Calm,Calm,-,N/A,,Scattered Clouds,0,2012-10-26 12:56:00
8:56 AM,71.1,63.0,75,30.00,10.0,ENE,4.6,-,N/A,,Clear,60,2012-10-26 13:56:00
9:56 AM,73.9,64.0,71,30.00,10.0,ENE,6.9,-,N/A,,Clear,70,2012-10-26 14:56:00
10:56 AM,77.0,63.0,62,30.00,10.0,East,5.8,-,N/A,,Partly Cloudy,80,2012-10-26 15:56:00
11:56 AM,81.0,61.0,50,29.98,10.0,Variable,5.8,-,N/A,,Scattered Clouds,0,2012-10-26 16:56:00
12:56 PM,81.0,60.1,49,29.94,10.0,Variable,4.6,-,N/A,,Mostly Cloudy,0,2012-10-26 17:56:00
1:56 PM,82.9,59.0,44,29.91,10.0,NW,4.6,-,N/A,,Scattered Clouds,310,2012-10-26 18:56:00
2:56 PM,82.9,57.0,41,29.89,10.0,NE,3.5,-,N/A,,Partly Cloudy,50,2012-10-26 19:56:00
3:56 PM,82.9,57.0,41,29.88,10.0,North,11.5,-,N/A,,Partly Cloudy,360,2012-10-26 20:56:00
4:56 PM,82.0,57.9,44,29.88,10.0,North,6.9,-,N/A,,Clear,350,2012-10-26 21:56:00
5:56 PM,78.1,59.0,52,29.89,10.0,Calm,Calm,-,N/A,,Clear,0,2012-10-26 22:56:00
6:56 PM,72.0,61.0,68,29.89,10.0,NNW,4.6,-,N/A,,Clear,340,2012-10-26 23:56:00
7:56 PM,66.9,61.0,81,29.90,10.0,NNW,3.5,-,N/A,,Clear,330,2012-10-27 00:56:00
8:56 PM,66.0,60.1,81,29.90,10.0,NNW,3.5,-,N/A,,Clear,330,2012-10-27 01:56:00
9:56 PM,66.0,60.1,81,29.91,10.0,NNW,4.6,-,N/A,,Clear,340,2012-10-27 02:56:00
10:56 PM,68.0,61.0,78,29.91,10.0,NW,10.4,-,N/A,,Clear,320,2012-10-27 03:56:00
11:56 PM,66.9,62.1,84,29.89,10.0,NW,9.2,-,N/A,,Clear,320,2012-10-27 04:56:00